Flag for U.S.A. Weather past 2 weeks in Canton, Ohio, U.S.A.

Now
55 °F

Passing clouds.


Feels Like: 55 °F
Forecast: 51 / 72 °F
Wind: 3 mph from Northwest

Location: Akron-Canton Regional Airport

Current Time: Jul 29, 2014 at 1:12:18 AM

Latest Report: Jul 29, 2014 at 12:51 AM


Visibility: 10 mi

Pressure: 29.96 "Hg

Humidity: 74%

Dew point: 47 °F

Location of CantonLocation

Historic Weather in Canton — Graph

°F

Canton temperature yesterday

Maximum temperature yesterday: 68 °F (at 3:51 PM)
Minimum temperature yesterday: 57 °F (at 9:51 PM)
Average temperature yesterday: 63 °F

Past Weeks' High & Low Weather Summary

 TemperatureHumidityPressure
High87 °F (Jul 21, 5:51 PM)94% (Jul 21, 4:51 AM)30.25 "Hg (Jul 21, 4:51 AM)
Low53 °F (Jul 25, 3:51 AM)36% (Jul 18, 12:51 PM)29.61 "Hg (Jul 27, 8:51 PM)
Average69 °F70%29.98 "Hg
* Reported Jul 13 11:51 PM — Jul 28 11:51 PM, Canton, Weather by CustomWeather, © 2014

Note: Actual official high and low records may vary slightly from our data, if they occured in-between our weather recording intervals... More about our weather records

Advertising

Canton weather history for previous 24 hours

 ConditionsComfort  
Time TempWeatherWind HumidityBarometerVisibility
11:51 PM
Jul 28
58 °FPartly cloudy.8 mph70%29.96 "Hg10 mi
10:51 PM59 °FOvercast.7 mph72%29.96 "Hg10 mi
9:51 PM57 °FPartly cloudy.3 mph81%29.96 "Hg10 mi
8:51 PM60 °FBroken clouds.6 mph69%29.94 "Hg10 mi
7:51 PM63 °FBroken clouds.9 mph63%29.93 "Hg10 mi
6:51 PM65 °FBroken clouds.12 mph61%29.92 "Hg10 mi
5:51 PM65 °FBroken clouds.13 mph66%29.91 "Hg10 mi
4:51 PM68 °FMore clouds than sun.13 mph57%29.89 "Hg10 mi
3:51 PM68 °FMore clouds than sun.17 mph63%29.87 "Hg10 mi
2:51 PM65 °FMore clouds than sun.17 mph68%29.85 "Hg10 mi
1:51 PM64 °FLight rain. Mostly cloudy.16 mph78%29.84 "Hg8 mi
12:51 PM65 °FLight rain. Overcast.13 mph73%29.82 "Hg8 mi
11:51 AM66 °FMostly cloudy.21 mph75%29.79 "Hg10 mi
10:51 AM65 °FLight rain. Mostly cloudy.15 mph85%29.76 "Hg6 mi
9:51 AM64 °FMostly cloudy.9 mph87%29.74 "Hg8 mi
8:51 AM63 °FLight rain. Low clouds.13 mph84%29.72 "Hg8 mi
7:51 AM62 °FLight rain. Low clouds.12 mph86%29.71 "Hg8 mi
6:51 AM62 °FPassing clouds.10 mph86%29.70 "Hg9 mi
6:00 AM63 °FPassing clouds.10 mph83%29.72 "Hg10 mi
4:51 AM63 °FLight rain. Mostly cloudy.12 mph87%29.68 "Hg10 mi
3:51 AM65 °FMostly cloudy.12 mph85%29.67 "Hg10 mi
2:51 AM64 °FFog.12 mph90%29.65 "Hg4 mi
1:51 AM64 °FFog.7 mph90%29.64 "Hg4 mi
Weather by CustomWeather, © 2014

See weather overviewHow to use our weather pages